• In Uzbekistan
  • List of Countries
  • For 7 days
  • Water Temperature
  • Satellite Maps
  • Weather Map
  • Weather Widgets
  • user-avatar
    Login

    Hourly Weather Hrazdan

    Today, 23 May, Thursday

    Time Temperature Precipitation Wind Pressure Humidity
    00:00 +9°C° 0 mm 1 mps 613 mmHg 86%
    01:00 +9°C° 0 mm 1 mps 613 mmHg 84%
    02:00 +9°C° 0 mm 1 mps 613 mmHg 83%
    03:00 +9°C° 0 mm 1 mps 612 mmHg 81%
    04:00 +8°C° 0 mm 2 mps 612 mmHg 81%
    05:00 +9°C° 0 mm 2 mps 612 mmHg 80%
    06:00 +9°C° 0 mm 2 mps 612 mmHg 80%
    07:00 +12°C° 0 mm 2 mps 613 mmHg 73%
    08:00 +13°C° 0 mm 3 mps 613 mmHg 66%
    09:00 +16°C° 0 mm 3 mps 614 mmHg 59%
    10:00 +15°C° 0.2 mm 4 mps 614 mmHg 58%
    11:00 +17°C° 0.2 mm 4 mps 614 mmHg 57%
    12:00 +17°C° 0.2 mm 4 mps 614 mmHg 56%
    13:00 +17°C° 0.4 mm 4 mps 613 mmHg 58%
    14:00 +17°C° 0.4 mm 4 mps 613 mmHg 60%
    15:00 +17°C° 0.4 mm 3 mps 613 mmHg 62%
    16:00 +16°C° 0.9 mm 3 mps 613 mmHg 68%
    17:00 +15°C° 0.9 mm 2 mps 612 mmHg 74%
    18:00 +14°C° 0.9 mm 1 mps 612 mmHg 81%
    19:00 +13°C° 0.8 mm 1 mps 612 mmHg 82%
    20:00 +13°C° 0.8 mm 1 mps 612 mmHg 84%
    21:00 +12°C° 0.8 mm 1 mps 612 mmHg 86%
    22:00 +12°C° 0.5 mm 1 mps 612 mmHg 87%
    23:00 +11°C° 0.5 mm 1 mps 612 mmHg 87%

    Tomorrow, 24 May, Friday

    Time Temperature Precipitation Wind Pressure Humidity
    00:00 +11°C° 0.5 mm 1 mps 612 mmHg 88%
    01:00 +11°C° 0.2 mm 1 mps 612 mmHg 88%
    02:00 +10°C° 0.2 mm 2 mps 612 mmHg 88%
    03:00 +10°C° 0.2 mm 2 mps 612 mmHg 87%
    04:00 +10°C° 0 mm 2 mps 612 mmHg 86%
    05:00 +10°C° 0 mm 2 mps 613 mmHg 85%
    06:00 +12°C° 0 mm 2 mps 613 mmHg 84%
    07:00 +13°C° 0 mm 3 mps 613 mmHg 76%
    08:00 +14°C° 0 mm 3 mps 614 mmHg 69%
    09:00 +17°C° 0 mm 4 mps 614 mmHg 61%
    10:00 +18°C° 0.2 mm 4 mps 615 mmHg 58%
    11:00 +19°C° 0.2 mm 4 mps 615 mmHg 56%
    12:00 +20°C° 0.2 mm 4 mps 615 mmHg 54%
    13:00 +20°C° 0.7 mm 4 mps 615 mmHg 54%
    14:00 +20°C° 0.7 mm 4 mps 614 mmHg 54%
    15:00 +20°C° 0.7 mm 4 mps 614 mmHg 54%
    16:00 +18°C° 1.8 mm 3 mps 614 mmHg 63%
    17:00 +16°C° 1.8 mm 3 mps 613 mmHg 72%
    18:00 +15°C° 1.8 mm 2 mps 613 mmHg 82%
    19:00 +14°C° 0.2 mm 2 mps 613 mmHg 82%
    20:00 +13°C° 0.2 mm 2 mps 613 mmHg 83%
    21:00 +12°C° 0.2 mm 1 mps 613 mmHg 84%
    22:00 +12°C° 0.2 mm 1 mps 614 mmHg 81%
    23:00 +12°C° 0.2 mm 1 mps 614 mmHg 79%

    Day after tomorrow, 25 May, Saturday

    Time Temperature Precipitation Wind Pressure Humidity
    00:00 +12°C° 0.2 mm 1 mps 614 mmHg 76%
    01:00 +12°C° 0 mm 1 mps 614 mmHg 74%
    02:00 +12°C° 0 mm 1 mps 614 mmHg 71%
    03:00 +12°C° 0 mm 1 mps 614 mmHg 69%
    04:00 +13°C° 0 mm 1 mps 614 mmHg 68%
    05:00 +13°C° 0 mm 1 mps 614 mmHg 67%
    06:00 +13°C° 0 mm 2 mps 615 mmHg 66%
    07:00 +16°C° 0 mm 2 mps 615 mmHg 59%
    08:00 +18°C° 0 mm 3 mps 616 mmHg 53%
    09:00 +20°C° 0 mm 4 mps 617 mmHg 46%
    10:00 +21°C° 0 mm 4 mps 617 mmHg 43%
    11:00 +22°C° 0 mm 5 mps 616 mmHg 40%
    12:00 +23°C° 0 mm 6 mps 616 mmHg 37%
    13:00 +23°C° 0 mm 6 mps 616 mmHg 38%
    14:00 +23°C° 0 mm 6 mps 616 mmHg 39%
    15:00 +23°C° 0 mm 6 mps 615 mmHg 40%
    16:00 +22°C° 0 mm 5 mps 615 mmHg 45%
    17:00 +21°C° 0 mm 4 mps 614 mmHg 50%
    18:00 +20°C° 0 mm 3 mps 614 mmHg 55%
    19:00 +18°C° 0.4 mm 3 mps 613 mmHg 56%
    20:00 +16°C° 0.4 mm 3 mps 613 mmHg 57%
    21:00 +14°C° 0.4 mm 2 mps 613 mmHg 58%
    22:00 +14°C° 0.1 mm 2 mps 613 mmHg 58%
    23:00 +13°C° 0.1 mm 2 mps 613 mmHg 58%

    26 May, Sunday

    Time Temperature Precipitation Wind Pressure Humidity
    00:00 +13°C° 0.1 mm 2 mps 613 mmHg 58%
    01:00 +12°C° 0 mm 1 mps 612 mmHg 58%
    02:00 +12°C° 0 mm 1 mps 612 mmHg 59%
    03:00 +11°C° 0 mm 1 mps 612 mmHg 59%
    04:00 +12°C° 0.1 mm 1 mps 612 mmHg 60%
    05:00 +13°C° 0.1 mm 1 mps 612 mmHg 61%
    06:00 +13°C° 0.1 mm 2 mps 613 mmHg 63%
    07:00 +16°C° 0 mm 2 mps 613 mmHg 57%
    08:00 +18°C° 0 mm 3 mps 614 mmHg 51%
    09:00 +20°C° 0 mm 4 mps 615 mmHg 45%
    10:00 +21°C° 0 mm 4 mps 615 mmHg 43%
    11:00 +22°C° 0 mm 5 mps 615 mmHg 42%
    12:00 +22°C° 0 mm 6 mps 615 mmHg 40%
    13:00 +23°C° 0 mm 5 mps 615 mmHg 40%
    14:00 +23°C° 0 mm 5 mps 615 mmHg 39%
    15:00 +23°C° 0 mm 5 mps 614 mmHg 39%
    16:00 +22°C° 0.4 mm 4 mps 614 mmHg 46%
    17:00 +20°C° 0.4 mm 3 mps 614 mmHg 53%
    18:00 +19°C° 0.4 mm 2 mps 614 mmHg 61%
    19:00 +17°C° 0.4 mm 2 mps 613 mmHg 70%
    20:00 +14°C° 0.4 mm 2 mps 613 mmHg 79%
    21:00 +11°C° 0.4 mm 3 mps 613 mmHg 87%
    22:00 +12°C° 0.2 mm 2 mps 613 mmHg 89%
    23:00 +10°C° 0.2 mm 2 mps 613 mmHg 91%

    27 May, Monday

    Time Temperature Precipitation Wind Pressure Humidity
    00:00 +10°C° 0.2 mm 2 mps 613 mmHg 92%
    01:00 +10°C° 0 mm 2 mps 613 mmHg 92%
    02:00 +9°C° 0 mm 2 mps 613 mmHg 91%
    03:00 +10°C° 0 mm 1 mps 613 mmHg 90%
    04:00 +11°C° 0 mm 1 mps 614 mmHg 86%
    05:00 +11°C° 0 mm 1 mps 614 mmHg 83%
    06:00 +12°C° 0 mm 1 mps 615 mmHg 80%
    07:00 +14°C° 0 mm 1 mps 615 mmHg 70%
    08:00 +16°C° 0 mm 1 mps 616 mmHg 61%
    09:00 +19°C° 0 mm 1 mps 617 mmHg 52%
    10:00 +20°C° 0 mm 1 mps 617 mmHg 48%
    11:00 +20°C° 0 mm 2 mps 617 mmHg 45%
    12:00 +21°C° 0 mm 2 mps 617 mmHg 41%
    13:00 +21°C° 0.1 mm 2 mps 617 mmHg 42%
    14:00 +21°C° 0.1 mm 2 mps 617 mmHg 43%
    15:00 +21°C° 0.1 mm 2 mps 617 mmHg 44%
    16:00 +20°C° 0.5 mm 2 mps 617 mmHg 52%
    17:00 +19°C° 0.5 mm 2 mps 616 mmHg 60%
    18:00 +18°C° 0.5 mm 2 mps 616 mmHg 68%
    19:00 +16°C° 0.3 mm 2 mps 616 mmHg 74%
    20:00 +14°C° 0.3 mm 2 mps 616 mmHg 80%
    21:00 +12°C° 0.3 mm 2 mps 616 mmHg 86%
    22:00 +12°C° 0 mm 2 mps 616 mmHg 85%
    23:00 +10°C° 0 mm 2 mps 616 mmHg 83%

    28 May, Tuesday

    Time Temperature Precipitation Wind Pressure Humidity
    00:00 +10°C° 0 mm 2 mps 616 mmHg 82%
    01:00 +9°C° 0 mm 2 mps 616 mmHg 83%
    02:00 +9°C° 0 mm 2 mps 616 mmHg 83%
    03:00 +9°C° 0 mm 2 mps 616 mmHg 84%
    04:00 +9°C° 0 mm 2 mps 616 mmHg 83%
    05:00 +10°C° 0 mm 2 mps 617 mmHg 82%
    06:00 +12°C° 0 mm 2 mps 618 mmHg 81%
    07:00 +14°C° 0 mm 2 mps 618 mmHg 74%
    08:00 +16°C° 0 mm 2 mps 619 mmHg 67%
    09:00 +18°C° 0 mm 2 mps 619 mmHg 60%
    10:00 +19°C° 0 mm 2 mps 619 mmHg 57%
    11:00 +20°C° 0 mm 2 mps 619 mmHg 55%
    12:00 +21°C° 0 mm 2 mps 619 mmHg 53%
    13:00 +21°C° 0.2 mm 2 mps 619 mmHg 56%
    14:00 +21°C° 0.2 mm 2 mps 619 mmHg 58%
    15:00 +21°C° 0.2 mm 2 mps 618 mmHg 61%
    16:00 +20°C° 0.3 mm 2 mps 618 mmHg 67%
    17:00 +19°C° 0.3 mm 3 mps 618 mmHg 73%
    18:00 +18°C° 0.3 mm 3 mps 618 mmHg 78%
    19:00 +17°C° 0.2 mm 2 mps 617 mmHg 84%
    20:00 +15°C° 0.2 mm 2 mps 617 mmHg 89%
    21:00 +13°C° 0.2 mm 2 mps 617 mmHg 94%
    22:00 +13°C° 0 mm 2 mps 617 mmHg 94%
    23:00 +12°C° 0 mm 2 mps 617 mmHg 94%
    Show more